Auburn, IN

6:05 AM EST on November 12, 2019 (GMT -0500)
Auburn

Weather History for KGWB - May, 2019

Change the Weather History Date:

Thursday, May 9, 2019

  Actual Average (WUND) Record (WUND)
Temperature  
Mean Temperature 60 °F -  
Max Temperature 71 °F - - (-1)
Min Temperature 50 °F - - (-1)
Degree Days  
Heating Degree Days 4    
Growing Degree Days 10 (Base 50)    
Moisture  
Dew Point 57 °F    
Average Humidity 86    
Maximum Humidity 100    
Minimum Humidity 73    
Precipitation  
Precipitation 0.30 in - - ()
Sea Level Pressure  
Sea Level Pressure 29.80 in    
Wind  
Wind Speed 8 mph (SSW)    
Max Wind Speed 13 mph    
Max Gust Speed 26 mph    
Visibility 9 miles    
Events Rain    
Averages and records for this station are not official NWS values.
T = Trace of Precipitation, MM = Missing Value Source: NWS Daily Summary

Daily Weather History Graph

Daily Weather History Graph

Search for Another Location

Airport or City:

Astronomy

May. 09, 2019 Rise Set
Actual Time 6:28 AM EDT 8:45 PM EDT
Civil Twilight 5:57 AM EDT 9:16 PM EDT
Nautical Twilight 5:19 AM EDT 9:54 PM EDT
Astronomical Twilight 4:37 AM EDT 10:37 PM EDT
Moon 10:21 AM EDT (5/9) 12:45 AM EDT (5/9)
Length of Visible Light 15h 19m
Length of Day
14h 17m
Waxing Crescent, 24% of the Moon is Illuminated
May 9
Waxing Crescent
May 11
First Quarter
May 18
Full
May 26
Last Quarter
Jun 3
New

Hourly Weather History & Observations

Time (EDT) Temp. Dew Point Humidity Pressure Visibility Wind Dir Wind Speed Gust Speed Precip Events Conditions
12:15 AM 50.0 °F 42.8 °F 76% 29.93 in 10.0 mi East 10.4 mph - N/A   Scattered Clouds
12:35 AM 50.0 °F 42.8 °F 76% 29.91 in 10.0 mi East 10.4 mph - N/A   Clear
12:55 AM 50.0 °F 42.8 °F 76% 29.91 in 10.0 mi East 10.4 mph - N/A   Scattered Clouds
1:15 AM 50.0 °F 42.8 °F 76% 29.90 in 10.0 mi East 8.1 mph - N/A   Scattered Clouds
1:35 AM 50.0 °F 44.6 °F 82% 29.89 in 10.0 mi East 6.9 mph - N/A   Clear
1:55 AM 50.0 °F 44.6 °F 82% 29.88 in 10.0 mi East 10.4 mph - N/A   Clear
2:15 AM 51.8 °F 44.6 °F 76% 29.87 in 10.0 mi East 6.9 mph - N/A   Clear
2:35 AM 51.8 °F 44.6 °F 76% 29.86 in 10.0 mi East 8.1 mph - N/A   Clear
2:55 AM 51.8 °F 44.6 °F 76% 29.85 in 10.0 mi East 9.2 mph - N/A   Clear
3:15 AM 51.8 °F 44.6 °F 76% 29.84 in 10.0 mi East 9.2 mph - N/A   Clear
3:35 AM 51.8 °F 46.4 °F 82% 29.83 in 10.0 mi East 5.8 mph - N/A   Clear
3:55 AM 51.8 °F 46.4 °F 82% 29.83 in 10.0 mi East 6.9 mph - N/A   Clear
4:15 AM 51.8 °F 46.4 °F 82% 29.82 in 10.0 mi East 5.8 mph - N/A   Clear
4:35 AM 53.6 °F 48.2 °F 82% 29.81 in 10.0 mi East 4.6 mph - N/A   Clear
4:55 AM 53.6 °F 48.2 °F 82% 29.80 in 10.0 mi East 5.8 mph - N/A   Clear
5:15 AM 53.6 °F 50.0 °F 88% 29.80 in 10.0 mi ESE 5.8 mph - N/A   Clear
5:35 AM 53.6 °F 50.0 °F 88% 29.79 in 10.0 mi ESE 4.6 mph - N/A   Clear
5:55 AM 55.4 °F 51.8 °F 88% 29.78 in 10.0 mi ESE 4.6 mph - N/A   Clear
6:15 AM 55.4 °F 51.8 °F 88% 29.77 in 10.0 mi ESE 4.6 mph - N/A   Clear
6:35 AM 59.0 °F 53.6 °F 82% 29.76 in 10.0 mi SE 4.6 mph - N/A   Clear
6:55 AM 60.8 °F 55.4 °F 82% 29.75 in 10.0 mi SE 4.6 mph - N/A   Scattered Clouds
7:15 AM 62.6 °F 57.2 °F 82% 29.75 in 10.0 mi SE 4.6 mph - N/A   Mostly Cloudy
7:35 AM 62.6 °F 59.0 °F 88% 29.74 in 10.0 mi Calm Calm - N/A   Scattered Clouds
7:55 AM 64.4 °F 59.0 °F 83% 29.74 in 10.0 mi Calm Calm - N/A   Mostly Cloudy
8:15 AM 66.2 °F 60.8 °F 83% 29.74 in 10.0 mi South 4.6 mph - N/A   Mostly Cloudy
8:35 AM 68.0 °F 60.8 °F 78% 29.73 in 10.0 mi South 4.6 mph - N/A Rain Rain
8:55 AM 68.0 °F 60.8 °F 78% 29.72 in 10.0 mi South 8.1 mph - N/A   Scattered Clouds
9:15 AM 69.8 °F 60.8 °F 73% 29.72 in 10.0 mi South 9.2 mph - N/A Rain Light Rain
9:35 AM 69.8 °F 62.6 °F 78% 29.72 in 10.0 mi South 12.7 mph 20.7 mph N/A   Mostly Cloudy
9:55 AM 69.8 °F 62.6 °F 78% 29.72 in 7.0 mi South 11.5 mph 19.6 mph N/A Rain Heavy Rain
10:15 AM 62.6 °F 62.6 °F 100% 29.75 in 2.5 mi SW 11.5 mph 26.5 mph 0.16 in Rain Rain
10:35 AM 62.6 °F 60.8 °F 94% 29.76 in 5.0 mi SW 8.1 mph 17.3 mph 0.20 in Rain Light Rain
10:55 AM 62.6 °F 60.8 °F 94% 29.76 in 4.0 mi SSW 6.9 mph 17.3 mph 0.21 in Rain Light Rain
11:10 AM 62.6 °F 62.6 °F 100% 29.76 in 5.0 mi SSW 8.1 mph 17.3 mph 0.03 in Rain Rain
11:30 AM 62.6 °F 62.6 °F 100% 29.77 in 10.0 mi SSW 6.9 mph - 0.05 in Rain Light Rain
11:57 AM 64.4 °F 64.4 °F 100% 29.78 in 10.0 mi SSW 6.9 mph - N/A   Overcast
12:15 PM 66.2 °F 64.4 °F 94% 29.78 in 10.0 mi SW 9.2 mph - N/A   Overcast
12:35 PM 66.2 °F 64.4 °F 94% 29.79 in 10.0 mi SSW 6.9 mph - N/A   Overcast
12:55 PM 68.0 °F 64.4 °F 88% 29.79 in 7.0 mi SW 5.8 mph - N/A Rain Rain
1:15 PM 66.2 °F 64.4 °F 94% 29.78 in 7.0 mi SW 9.2 mph 16.1 mph N/A   Mostly Cloudy
1:35 PM 69.8 °F 64.4 °F 83% 29.78 in 10.0 mi SW 11.5 mph - N/A   Scattered Clouds
1:55 PM 69.8 °F 64.4 °F 83% 29.78 in 10.0 mi WSW 8.1 mph - N/A   Mostly Cloudy
2:15 PM 68.0 °F 62.6 °F 83% 29.79 in 10.0 mi SW 11.5 mph 17.3 mph N/A   Overcast
2:35 PM 69.8 °F 64.4 °F 83% 29.78 in 10.0 mi SW 8.1 mph - N/A   Overcast
2:55 PM 69.8 °F 62.6 °F 78% 29.79 in 10.0 mi SW 6.9 mph 16.1 mph N/A   Mostly Cloudy
3:15 PM 69.8 °F 62.6 °F 78% 29.79 in 10.0 mi SW 8.1 mph 16.1 mph N/A   Mostly Cloudy
3:35 PM 68.0 °F 64.4 °F 88% 29.80 in 7.0 mi SSW 8.1 mph 18.4 mph 0.01 in Rain Rain
4:55 PM 71.6 °F 66.2 °F 83% 29.78 in 10.0 mi SSW 8.1 mph 17.3 mph 0.01 in   Scattered Clouds
5:15 PM 69.8 °F 64.4 °F 83% 29.78 in 10.0 mi SW 8.1 mph 17.3 mph N/A   Scattered Clouds
5:35 PM 69.8 °F 62.6 °F 78% 29.78 in 10.0 mi SW 11.5 mph - N/A   Scattered Clouds
5:55 PM 69.8 °F 62.6 °F 78% 29.79 in 10.0 mi SW 10.4 mph 17.3 mph N/A   Clear
6:15 PM 68.0 °F 62.6 °F 83% 29.79 in 7.0 mi SSW 9.2 mph - 0.02 in Rain Light Rain
6:35 PM 64.4 °F 62.6 °F 94% 29.80 in 10.0 mi SW 5.8 mph - 0.02 in   Mostly Cloudy
6:55 PM 66.2 °F 62.6 °F 88% 29.80 in 10.0 mi SW 6.9 mph - 0.02 in   Mostly Cloudy
7:15 PM 64.4 °F 62.6 °F 94% 29.81 in 10.0 mi SW 3.5 mph - N/A   Light Drizzle
7:35 PM 66.2 °F 62.6 °F 88% 29.80 in 10.0 mi SW 4.6 mph - N/A   Mostly Cloudy
7:55 PM 64.4 °F 64.4 °F 100% 29.81 in 7.0 mi SSW 4.6 mph - N/A Rain Rain
8:15 PM 64.4 °F 62.6 °F 94% 29.81 in 10.0 mi SSW 3.5 mph - N/A   Mostly Cloudy
8:35 PM 64.4 °F 62.6 °F 94% 29.81 in 10.0 mi SW 4.6 mph - N/A   Mostly Cloudy
8:55 PM 64.4 °F 62.6 °F 94% 29.81 in 10.0 mi SW 3.5 mph - N/A   Overcast
9:15 PM 64.4 °F 62.6 °F 94% 29.83 in 10.0 mi West 4.6 mph - N/A   Overcast
9:35 PM 64.4 °F 60.8 °F 88% 29.83 in 10.0 mi WNW 8.1 mph - N/A   Overcast
9:55 PM 62.6 °F 59.0 °F 88% 29.83 in 10.0 mi West 11.5 mph - N/A   Overcast
10:15 PM 62.6 °F 59.0 °F 88% 29.83 in 10.0 mi West 8.1 mph - N/A   Overcast
10:35 PM 62.6 °F 59.0 °F 88% 29.85 in 10.0 mi West 12.7 mph 17.3 mph N/A   Overcast
10:55 PM 60.8 °F 59.0 °F 94% 29.86 in 4.0 mi WNW 12.7 mph 16.1 mph N/A   Drizzle
11:15 PM 59.0 °F 57.2 °F 94% 29.85 in 10.0 mi WNW 3.5 mph - N/A   Light Drizzle
11:35 PM 59.0 °F 57.2 °F 94% 29.86 in 10.0 mi Calm Calm - N/A   Light Drizzle
11:55 PM 57.2 °F 55.4 °F 94% 29.88 in 10.0 mi WNW 12.7 mph 17.3 mph N/A Rain Rain